This demonstration page uses our WeatherBlox Daily Observations layout. Learn more.

Left ArrowRight Arrow

Hourly Observations for July 28, 2016

Temp ( °F °C ) Dew Point ( °F °C ) Humidity (%) Winds ( mph kmh ) Pressure ( in mb ) Visibility ( mi km ) Precip ( " mm )
12:15 am 00:15 Clear 68 19.9 64 17.7 87 87 NNE 9 15 30.00 1016 10 16 N/A
12:35 am 00:35 Clear 68 20 63 17.4 85 85 NNE 8 13 30.00 1016 10 16 N/A
12:55 am 00:55 Clear 67 19.7 62 16.6 82 82 NNE 9 15 30.00 1016 10 16 N/A
1:15 am 01:15 Clear 67 19.5 62 16.4 82 82 NE 8 13 30.00 1016 10 16 N/A
1:35 am 01:35 Clear 66 19.1 61 16 82 82 NE 8 13 30.00 1016 10 16 N/A
1:55 am 01:55 Clear 66 18.7 61 16 84 84 NE 6 9 30.00 1016 10 16 N/A
2:15 am 02:15 Clear 65 18.5 61 16.1 86 86 SW 3 6 30.03 1017 10 16 N/A
2:35 am 02:35 Clear 64 18 61 16.3 90 90 N N/A 30.00 1016 10 16 N/A
2:55 am 02:55 Clear 64 18 61 16.1 89 89 SW 3 6 30.00 1016 10 16 N/A
3:15 am 03:15 Clear 64 17.5 61 16 91 91 N N/A 30.00 1016 10 16 N/A
3:35 am 03:35 Clear 63 17.4 61 16 92 92 N N/A 29.97 1015 10 16 N/A
3:55 am 03:55 Clear 63 17.2 61 16.1 93 93 NNW 5 7 29.97 1015 10 16 N/A
4:15 am 04:15 Clear 63 17.3 61 16.1 93 93 W 6 9 30.00 1016 10 16 N/A
4:35 am 04:35 Clear 64 17.5 61 16 91 91 W 5 7 29.97 1015 10 16 N/A
4:55 am 04:55 Clear 63 17.3 61 16 92 92 W 5 7 29.97 1015 10 16 N/A
5:15 am 05:15 Clear 64 17.5 61 16 91 91 NE 5 7 30.00 1016 10 16 N/A
5:35 am 05:35 Clear 63 17.4 61 16 92 92 NE 5 7 30.00 1016 10 16 N/A
5:55 am 05:55 Clear 63 17.3 61 15.9 92 92 N N/A 30.06 1018 10 16 N/A
6:15 am 06:15 Clear 63 17.2 61 16 93 93 N N/A 30.06 1018 10 16 N/A
6:35 am 06:35 Partly Cloudy 63 17.2 61 16.1 93 93 N N/A 30.06 1018 10 16 N/A
6:55 am 06:55 Partly Cloudy 63 17.3 61 16 92 92 N N/A 30.06 1018 10 16 N/A
7:15 am 07:15 Sunny 63 17.3 61 16.2 93 93 N N/A 30.06 1018 10 16 N/A
7:35 am 07:35 Sunny 63 17.3 60 15.6 90 90 NNE 3 6 30.06 1018 10 16 N/A
7:55 am 07:55 Sunny 63 17.4 60 15.5 89 89 ENE 6 9 30.03 1017 10 16 N/A
8:15 am 08:15 Sunny 65 18.6 60 15.7 83 83 NE 6 9 30.03 1017 10 16 N/A
8:35 am 08:35 Sunny 67 19.5 61 16.2 81 81 ENE 6 9 30.03 1017 10 16 N/A
8:55 am 08:55 Sunny 68 19.8 61 16.3 80 80 N N/A 30.03 1017 10 16 N/A
9:15 am 09:15 Sunny 69 20.5 62 16.6 78 78 E 5 7 30.03 1017 10 16 N/A
9:35 am 09:35 Sunny 69 20.7 63 17 79 79 E 6 9 30.03 1017 10 16 N/A
9:55 am 09:55 Sunny 70 21 63 17.4 80 80 E 5 7 30.00 1016 10 16 N/A
10:15 am 10:15 Sunny 70 21 63 17.4 80 80 N N/A 30.06 1018 10 16 N/A
10:35 am 10:35 Mostly Cloudy 70 21 64 17.5 81 81 NNW 5 7 30.06 1018 10 16 N/A
10:55 am 10:55 Partly Cloudy 70 21 64 17.7 82 82 NW 7 11 30.06 1018 10 16 N/A
11:15 am 11:15 Partly Cloudy with Nearby Thunderstorms 70 20.9 64 17.9 83 83 NW 8 13 30.06 1018 10 16 N/A
11:35 am 11:35 Mostly Cloudy with Light Rain 69 20.6 64 18 85 85 N 14 22 30.03 1017 10 16 N/A
11:55 am 11:55 Cloudy with Light Rain 69 20.4 65 18.1 87 87 N 10 17 30.00 1016 10 16 N/A
12:15 pm 12:15 Cloudy with Light Rain 68 20 65 18.1 89 89 N 15 24 30.00 1016 10 16 0.03 0.76
12:35 pm 12:35 Mostly Cloudy with Light Rain 68 19.8 64 17.8 88 88 S 17 28 29.97 1015 10 16 0.03 0.76
12:55 pm 12:55 Sunny 69 20.6 66 18.7 89 89 SSE 13 20 29.94 1014 10 16 0.04 1.02
1:15 pm 13:15 Sunny 71 21.6 66 18.8 84 84 SSE 13 20 29.94 1014 10 16 N/A
1:35 pm 13:35 Partly Cloudy 73 22.9 66 19 79 79 N 12 19 30.00 1016 10 16 N/A
1:55 pm 13:55 Mostly Cloudy with Light Rain 70 21.3 65 18.1 82 82 NNW 9 15 30.00 1016 10 16 N/A
2:15 pm 14:15 Mostly Cloudy with Light Rain 71 21.9 65 18.1 79 79 NW 6 9 30.00 1016 10 16 N/A
2:35 pm 14:35 Partly Cloudy 72 22 65 18.4 80 80 N 5 7 30.00 1016 10 16 N/A
2:55 pm 14:55 Partly Cloudy with Light Rain 73 22.5 66 18.8 80 80 NW 7 11 29.97 1015 10 16 N/A
3:15 pm 15:15 Partly Cloudy 72 22 65 18.6 81 81 W 7 11 30.00 1016 10 16 N/A
3:35 pm 15:35 Cloudy with Light Rain 71 21.4 66 19 86 86 NW 8 13 30.00 1016 10 16 N/A
3:55 pm 15:55 Cloudy with Rain 70 21 66 19 88 88 WNW 13 20 30.00 1016 5 8 0.05 1.27
4:15 pm 16:15 Cloudy with Heavy Rain 68 20.2 65 18.5 90 90 N N/A 30.00 1016 5 8 0.06 1.52
4:35 pm 16:35 Cloudy with Light Rain 68 20.1 66 18.8 92 92 E 5 7 29.97 1015 10 16 0.10 2.54
4:55 pm 16:55 Mostly Cloudy 69 20.4 66 19 92 92 ESE 12 19 29.91 1013 10 16 0.10 2.54
5:15 pm 17:15 Partly Cloudy 70 21 66 19.1 89 89 ESE 5 7 29.94 1014 10 16 N/A
5:35 pm 17:35 Sunny 71 21.6 66 19.1 86 86 N 3 6 29.94 1014 10 16 N/A
5:55 pm 17:55 Sunny 72 22 67 19.5 86 86 NNW 9 15 29.94 1014 10 16 N/A
6:15 pm 18:15 Sunny 73 22.8 67 19.4 81 81 N 6 9 29.94 1014 10 16 N/A
6:35 pm 18:35 Sunny 74 23.3 66 19 77 77 N 5 7 29.94 1014 10 16 N/A
6:55 pm 18:55 Sunny 75 23.7 65 18.5 73 73 N 3 6 29.91 1013 10 16 N/A
7:15 pm 19:15 Sunny 74 23.6 65 18.5 73 73 N 6 9 29.94 1014 10 16 N/A
7:35 pm 19:35 Sunny 74 23.4 64 18 72 72 N 3 6 29.94 1014 10 16 N/A
7:55 pm 19:55 Sunny 73 23 65 18.4 75 75 NNW 3 6 29.94 1014 10 16 N/A
8:15 pm 20:15 Sunny 73 22.5 65 18.5 78 78 W 3 6 29.94 1014 10 16 N/A
8:35 pm 20:35 Sunny 71 21.6 65 18.5 83 83 W 5 7 29.94 1014 10 16 N/A
8:55 pm 20:55 Sunny 70 21 65 18.1 84 84 W 3 6 29.94 1014 10 16 N/A
9:15 pm 21:15 Clear 68 19.9 64 17.9 88 88 W 3 6 29.97 1015 10 16 N/A
9:35 pm 21:35 Clear 67 19.5 64 17.7 89 89 W 3 6 30.00 1016 10 16 N/A
9:55 pm 21:55 Clear 66 19 63 17.2 89 89 WSW 3 6 30.00 1016 10 16 N/A
10:15 pm 22:15 Clear 66 18.9 63 17.3 90 90 N N/A 30.00 1016 10 16 N/A
10:35 pm 22:35 Clear 65 18.4 63 17 92 92 N N/A 30.03 1017 10 16 N/A
10:55 pm 22:55 Clear 65 18.5 63 17.2 92 92 N N/A 30.03 1017 10 16 N/A
11:15 pm 23:15 Clear 65 18.2 62 16.8 92 92 N N/A 30.03 1017 10 16 N/A
11:35 pm 23:35 Partly Cloudy 64 18 62 16.8 93 93 E 3 6 30.03 1017 10 16 N/A
11:55 pm 23:55 Mostly Cloudy with Nearby Thunderstorms 65 18.5 64 17.5 94 94 ENE 3 6 30.03 1017 10 16 N/A

Powered by AerisWeather